Lancaster, PA

6:28 PM EST on February 24, 2017 (GMT -0500)
Lancaster

Weather History for KLNS - January, 2014

Change the Weather History Date:

Sunday, January 5, 2014

  Actual Average Record
Temperature  
Mean Temperature 26 °F -  
Max Temperature 46 °F 40 °F 63 °F (1993)
Min Temperature 7 °F 23 °F 7 °F (1981)
Degree Days  
Heating Degree Days 38    
Moisture  
Dew Point 25 °F    
Average Humidity 92    
Maximum Humidity 100    
Minimum Humidity 80    
Precipitation  
Precipitation 0.22 in - - ()
Sea Level Pressure  
Sea Level Pressure 30.10 in    
Wind  
Wind Speed 3 mph (East)    
Max Wind Speed 13 mph    
Max Gust Speed -    
Visibility 2 miles    
Events Fog , Rain    
Averages and records for this station are not official NWS values.
T = Trace of Precipitation, MM = Missing Value Source: NWS Daily Summary

Daily Weather History Graph

Daily Weather History Graph

Search for Another Location

Airport or City:

Trip Planner

Search our weather history database for the weather conditions in past years. The results will help you decide how hot, cold, wet, or windy it might be!

Date:

Astronomy

Jan. 05, 2014 Rise Set
Actual Time 7:27 AM EST 4:53 PM EST
Civil Twilight 6:57 AM EST 5:24 PM EST
Nautical Twilight 6:23 AM EST 5:58 PM EST
Astronomical Twilight 5:50 AM EST 6:30 PM EST
Moon 10:07 AM EST (1/5) 10:19 PM EST (1/5)
Length of Visible Light 10h 26m
Length of Day
9h 26m
Waxing Crescent, 24% of the Moon is Illuminated
Jan 5
Waxing Crescent
Jan 7
First Quarter
Jan 15
Full
Jan 24
Last Quarter
Jan 30
New

Hourly Weather History & Observations

Time (EST) Temp. Windchill Dew Point Humidity Pressure Visibility Wind Dir Wind Speed Gust Speed Precip Events Conditions
12:53 AM 14.0 °F - 12.0 °F 92% 30.27 in 8.0 mi Calm Calm - N/A   Clear
1:53 AM 12.0 °F - 9.0 °F 88% 30.28 in 5.0 mi Calm Calm - N/A   Clear
2:53 AM 9.0 °F 2.4 °F 8.1 °F 96% 30.28 in 4.0 mi East 3.5 mph - N/A   Clear
3:53 AM 10.0 °F - 7.0 °F 87% 30.28 in 3.0 mi Calm Calm - N/A   Clear
4:53 AM 9.0 °F 0.6 °F 7.0 °F 92% 30.27 in 4.0 mi ESE 4.6 mph - N/A   Clear
5:53 AM 7.0 °F 0.1 °F 5.0 °F 92% 30.27 in 3.0 mi ESE 3.5 mph - N/A   Clear
6:53 AM 9.0 °F - 5.0 °F 84% 30.27 in 4.0 mi Calm Calm - N/A   Clear
7:53 AM 9.0 °F - 5.0 °F 84% 30.28 in 3.0 mi Calm Calm - N/A   Overcast
8:51 AM 12.2 °F - 8.6 °F 85% 30.25 in 3.0 mi Calm Calm - N/A   Mostly Cloudy
8:53 AM 12.9 °F - 10.0 °F 88% 30.28 in 3.0 mi Calm Calm - N/A   Mostly Cloudy
9:53 AM 19.0 °F 13.9 °F 17.1 °F 92% 30.27 in 4.0 mi ESE 3.5 mph - N/A   Overcast
10:01 AM 19.4 °F 14.3 °F 17.6 °F 93% 30.24 in 3.0 mi East 3.5 mph - N/A   Overcast
10:53 AM 24.1 °F - 19.0 °F 81% 30.24 in 4.0 mi Calm Calm - 0.00 in   Overcast
11:05 AM 24.8 °F - 21.2 °F 86% 30.21 in 2.0 mi Calm Calm - 0.01 in Rain Light Freezing Rain
11:20 AM 26.6 °F - 21.2 °F 80% 30.20 in 1.2 mi Calm Calm - 0.02 in Rain Light Freezing Rain
11:28 AM 26.6 °F - 23.0 °F 86% 30.20 in 1.0 mi Calm Calm - 0.04 in Rain Light Freezing Rain
11:49 AM 28.4 °F 22.2 °F 24.8 °F 86% 30.17 in 1.2 mi ENE 5.8 mph - 0.06 in Rain Light Freezing Rain
11:53 AM 28.0 °F 22.8 °F 25.0 °F 88% 30.19 in 1.5 mi ENE 4.6 mph - 0.07 in Rain Light Freezing Rain
12:08 PM 28.4 °F 21.2 °F 26.6 °F 93% 30.15 in 1.5 mi East 6.9 mph - 0.01 in Rain Light Freezing Rain
12:33 PM 28.4 °F 22.2 °F 26.6 °F 93% 30.14 in 2.0 mi ENE 5.8 mph - 0.02 in Rain Light Freezing Rain
12:43 PM 28.4 °F 23.3 °F 26.6 °F 93% 30.13 in 1.5 mi ENE 4.6 mph - 0.03 in Rain Light Freezing Rain
12:53 PM 28.9 °F 22.8 °F 27.0 °F 92% 30.14 in 1.2 mi ENE 5.8 mph - 0.04 in Rain Light Freezing Rain
1:34 PM 30.2 °F 25.4 °F 28.4 °F 93% 30.10 in 1.0 mi ENE 4.6 mph - 0.00 in   Overcast
1:53 PM 30.0 °F 26.5 °F 28.9 °F 96% 30.13 in 1.2 mi North 3.5 mph - 0.00 in   Overcast
2:21 PM 30.2 °F 26.7 °F 28.4 °F 93% 30.10 in 0.8 mi ENE 3.5 mph - 0.02 in   Overcast
2:41 PM 30.2 °F 26.7 °F 28.4 °F 93% 30.10 in 0.8 mi ENE 3.5 mph - 0.03 in   Overcast
2:53 PM 30.9 °F 27.5 °F 28.9 °F 92% 30.12 in 1.0 mi East 3.5 mph - 0.03 in   Overcast
3:11 PM 30.2 °F 26.7 °F 30.2 °F 100% 30.08 in 0.8 mi East 3.5 mph - 0.01 in   Overcast
3:17 PM 30.2 °F 25.4 °F 30.2 °F 100% 30.08 in 1.0 mi East 4.6 mph - 0.01 in   Overcast
3:53 PM 32.0 °F 28.7 °F 30.9 °F 96% 30.09 in 1.2 mi NE 3.5 mph - 0.01 in   Overcast
4:19 PM 32.0 °F 26.4 °F 30.2 °F 93% 30.06 in 0.5 mi ENE 5.8 mph - N/A Fog Fog
4:29 PM 32.0 °F 27.5 °F 30.2 °F 93% 30.05 in 0.5 mi ENE 4.6 mph - N/A Fog Fog
4:53 PM 32.0 °F 27.5 °F 30.9 °F 96% 30.06 in 0.8 mi East 4.6 mph - N/A   Overcast
5:41 PM 32.0 °F 23.6 °F 30.2 °F 93% 30.00 in 1.2 mi East 10.4 mph - 0.01 in   Overcast
5:53 PM 32.0 °F 23.6 °F 30.9 °F 96% 30.00 in 0.8 mi East 10.4 mph - 0.01 in   Overcast
6:08 PM 32.0 °F 24.8 °F 30.2 °F 93% 29.98 in 1.0 mi East 8.1 mph - N/A   Overcast
6:53 PM 33.1 °F 25.5 °F 32.0 °F 96% 29.96 in 1.5 mi East 9.2 mph - N/A   Overcast
7:48 PM 33.8 °F 27.0 °F 33.8 °F 100% 29.89 in 0.5 mi East 8.1 mph - N/A Fog Fog
7:53 PM 34.0 °F 27.2 °F 33.1 °F 96% 29.91 in 0.5 mi East 8.1 mph - N/A Fog Fog
8:04 PM 33.8 °F 27.7 °F 33.8 °F 100% 29.88 in 0.2 mi East 6.9 mph - N/A Fog Fog
8:53 PM 35.1 °F 28.6 °F 34.0 °F 96% 29.84 in 0.2 mi East 8.1 mph - 0.04 in Fog , Rain Light Rain
9:53 PM 37.9 °F 33.5 °F 37.9 °F 100% 29.79 in 0.2 mi East 5.8 mph - 0.02 in Fog , Rain Light Rain
10:53 PM 43.0 °F 38.8 °F 42.1 °F 97% 29.73 in 0.2 mi SSE 6.9 mph - 0.00 in Fog Fog
11:08 PM 46.4 °F 40.7 °F 44.6 °F 93% 29.70 in 0.2 mi SSE 12.7 mph - N/A Fog Fog
11:53 PM 46.9 °F - 46.9 °F 100% 29.66 in 0.2 mi South 10.4 mph - 0.00 in Fog Fog